Year,Month,Day,Hour,Minute,Value (Times are PST for temperature in C)
2018,10,21,00,00,9.70
2018,10,21,00,01,9.70
2018,10,21,00,02,9.70
2018,10,21,00,03,9.70
2018,10,21,00,04,9.70
2018,10,21,00,05,9.70
2018,10,21,00,06,9.70
2018,10,21,00,07,9.70
2018,10,21,00,08,9.70
2018,10,21,00,09,9.70
2018,10,21,00,10,9.70
2018,10,21,00,11,9.60
2018,10,21,00,12,9.60
2018,10,21,00,13,9.60
2018,10,21,00,14,9.60
2018,10,21,00,15,9.60
2018,10,21,00,16,9.60
2018,10,21,00,17,9.70
2018,10,21,00,18,9.70
2018,10,21,00,19,9.70
2018,10,21,00,20,9.70
2018,10,21,00,21,9.70
2018,10,21,00,22,9.70
2018,10,21,00,23,9.70
2018,10,21,00,24,9.70
2018,10,21,00,25,9.70
2018,10,21,00,26,9.70
2018,10,21,00,27,9.70
2018,10,21,00,28,9.70
2018,10,21,00,29,9.70
2018,10,21,00,30,9.70
2018,10,21,00,31,9.80
2018,10,21,00,32,9.80
2018,10,21,00,33,9.80
2018,10,21,00,34,9.80
2018,10,21,00,35,9.80
2018,10,21,00,36,9.80
2018,10,21,00,37,9.80
2018,10,21,00,38,9.80
2018,10,21,00,39,9.80
2018,10,21,00,40,9.80
2018,10,21,00,41,9.80
2018,10,21,00,42,9.80
2018,10,21,00,43,9.90
2018,10,21,00,44,9.90
2018,10,21,00,45,9.90
2018,10,21,00,46,9.90
2018,10,21,00,47,9.90
2018,10,21,00,48,9.90
2018,10,21,00,49,9.90
2018,10,21,00,50,9.90
2018,10,21,00,51,9.90
2018,10,21,00,52,9.90
2018,10,21,00,53,9.90
2018,10,21,00,54,9.90
2018,10,21,00,55,9.90
2018,10,21,00,56,9.90
2018,10,21,00,57,9.90
2018,10,21,00,58,9.80
2018,10,21,00,59,9.80
2018,10,21,01,00,9.80
2018,10,21,01,01,9.80
2018,10,21,01,02,9.80
2018,10,21,01,03,9.80
2018,10,21,01,04,9.80
2018,10,21,01,05,9.80
2018,10,21,01,06,9.80
2018,10,21,01,07,9.80
2018,10,21,01,08,9.70
2018,10,21,01,09,9.70
2018,10,21,01,10,9.70
2018,10,21,01,11,9.70
2018,10,21,01,12,9.70
2018,10,21,01,13,9.70
2018,10,21,01,14,9.80
2018,10,21,01,15,9.80
2018,10,21,01,16,9.80
2018,10,21,01,17,9.80
2018,10,21,01,18,9.80
2018,10,21,01,19,9.80
2018,10,21,01,20,9.80
2018,10,21,01,21,9.80
2018,10,21,01,22,9.80
2018,10,21,01,23,9.80
2018,10,21,01,24,9.80
2018,10,21,01,25,9.80
2018,10,21,01,26,9.80
2018,10,21,01,27,9.80
2018,10,21,01,28,9.80
2018,10,21,01,29,9.80
2018,10,21,01,30,9.80
2018,10,21,01,31,9.80
2018,10,21,01,32,9.80
2018,10,21,01,33,9.90
2018,10,21,01,34,9.90
2018,10,21,01,35,9.90
2018,10,21,01,36,9.90
2018,10,21,01,37,9.90
2018,10,21,01,38,9.90
2018,10,21,01,39,9.90
2018,10,21,01,40,9.90
2018,10,21,01,41,9.90
2018,10,21,01,42,9.90
2018,10,21,01,43,9.90
2018,10,21,01,44,9.90
2018,10,21,01,45,9.90
2018,10,21,01,46,9.90
2018,10,21,01,47,9.90
2018,10,21,01,48,9.90
2018,10,21,01,49,9.90
2018,10,21,01,50,9.90
2018,10,21,01,51,9.90
2018,10,21,01,52,9.80
2018,10,21,01,53,9.90
2018,10,21,01,54,9.90
2018,10,21,01,55,9.90
2018,10,21,01,56,9.90
2018,10,21,01,57,9.90
2018,10,21,01,58,9.90
2018,10,21,01,59,9.90
2018,10,21,02,00,9.90
2018,10,21,02,01,9.90
2018,10,21,02,02,9.90
2018,10,21,02,03,9.90
2018,10,21,02,04,9.90
2018,10,21,02,05,9.90
2018,10,21,02,06,9.90
2018,10,21,02,07,9.80
2018,10,21,02,08,9.80
2018,10,21,02,09,9.80
2018,10,21,02,10,9.80
2018,10,21,02,11,9.80
2018,10,21,02,12,9.80
2018,10,21,02,13,9.70
2018,10,21,02,14,9.70
2018,10,21,02,15,9.70
2018,10,21,02,16,9.70
2018,10,21,02,17,9.60
2018,10,21,02,18,9.60
2018,10,21,02,19,9.60
2018,10,21,02,20,9.60
2018,10,21,02,21,9.60
2018,10,21,02,22,9.60
2018,10,21,02,23,9.60
2018,10,21,02,24,9.50
2018,10,21,02,25,9.50
2018,10,21,02,26,9.50
2018,10,21,02,27,9.50
2018,10,21,02,28,9.40
2018,10,21,02,29,9.40
2018,10,21,02,30,9.40
2018,10,21,02,31,9.40
2018,10,21,02,32,9.40
2018,10,21,02,33,9.40
2018,10,21,02,34,9.40
2018,10,21,02,35,9.40
2018,10,21,02,36,9.30
2018,10,21,02,37,9.30
2018,10,21,02,38,9.30
2018,10,21,02,39,9.30
2018,10,21,02,40,9.30
2018,10,21,02,41,9.30
2018,10,21,02,42,9.30
2018,10,21,02,43,9.30
2018,10,21,02,44,9.30
2018,10,21,02,45,9.30
2018,10,21,02,46,9.20
2018,10,21,02,47,9.20
2018,10,21,02,48,9.20
2018,10,21,02,49,9.20
2018,10,21,02,50,9.20
2018,10,21,02,51,9.20
2018,10,21,02,52,9.20
2018,10,21,02,53,9.20
2018,10,21,02,54,9.20
2018,10,21,02,55,9.20
2018,10,21,02,56,9.20
2018,10,21,02,57,9.20
2018,10,21,02,58,9.20
2018,10,21,02,59,9.20
2018,10,21,03,00,9.20
2018,10,21,03,01,9.20
2018,10,21,03,02,9.20
2018,10,21,03,03,9.20
2018,10,21,03,04,9.20
2018,10,21,03,05,9.20
2018,10,21,03,06,9.10
2018,10,21,03,07,9.10
2018,10,21,03,08,9.10
2018,10,21,03,09,9.10
2018,10,21,03,10,9.10
2018,10,21,03,11,9.10
2018,10,21,03,12,9.10
2018,10,21,03,13,9.10
2018,10,21,03,14,9.00
2018,10,21,03,15,9.00
2018,10,21,03,16,9.00
2018,10,21,03,17,9.00
2018,10,21,03,18,8.90
2018,10,21,03,19,8.90
2018,10,21,03,20,8.90
2018,10,21,03,21,8.90
2018,10,21,03,22,8.90
2018,10,21,03,23,8.80
2018,10,21,03,24,8.80
2018,10,21,03,25,8.80
2018,10,21,03,26,8.80
2018,10,21,03,27,8.80
2018,10,21,03,28,8.80
2018,10,21,03,29,8.80
2018,10,21,03,30,8.70
2018,10,21,03,31,8.70
2018,10,21,03,32,8.70
2018,10,21,03,33,8.70
2018,10,21,03,34,8.70
2018,10,21,03,35,8.70
2018,10,21,03,36,8.70
2018,10,21,03,37,8.70
2018,10,21,03,38,8.70
2018,10,21,03,39,8.70
2018,10,21,03,40,8.70
2018,10,21,03,41,8.70
2018,10,21,03,42,8.60
2018,10,21,03,43,8.60
2018,10,21,03,44,8.60
2018,10,21,03,45,8.60
2018,10,21,03,46,8.50
2018,10,21,03,47,8.50
2018,10,21,03,48,8.40
2018,10,21,03,49,8.40
2018,10,21,03,50,8.40
2018,10,21,03,51,8.40
2018,10,21,03,52,8.40
2018,10,21,03,53,8.30
2018,10,21,03,54,8.30
2018,10,21,03,55,8.30
2018,10,21,03,56,8.40
2018,10,21,03,57,8.40
2018,10,21,03,58,8.40
2018,10,21,03,59,8.40
2018,10,21,04,00,8.40
2018,10,21,04,01,8.40
2018,10,21,04,02,8.40
2018,10,21,04,03,8.40
2018,10,21,04,04,8.40
2018,10,21,04,05,8.40
2018,10,21,04,06,8.40
2018,10,21,04,07,8.30
2018,10,21,04,08,8.30
2018,10,21,04,09,8.30
2018,10,21,04,10,8.30
2018,10,21,04,11,8.30
2018,10,21,04,12,8.30
2018,10,21,04,13,8.40
2018,10,21,04,14,8.40
2018,10,21,04,15,8.40
2018,10,21,04,16,8.40
2018,10,21,04,17,8.50
2018,10,21,04,18,8.50
2018,10,21,04,19,8.50
2018,10,21,04,20,8.50
2018,10,21,04,21,8.50
2018,10,21,04,22,8.50
2018,10,21,04,23,8.50
2018,10,21,04,24,8.50
2018,10,21,04,25,8.60
2018,10,21,04,26,8.60
2018,10,21,04,27,8.60
2018,10,21,04,28,8.60
2018,10,21,04,29,8.60
2018,10,21,04,30,8.60
2018,10,21,04,31,8.60
2018,10,21,04,32,8.60
2018,10,21,04,33,8.60
2018,10,21,04,34,8.50
2018,10,21,04,35,8.50
2018,10,21,04,36,8.40
2018,10,21,04,37,8.40
2018,10,21,04,38,8.40
2018,10,21,04,39,8.40
2018,10,21,04,40,8.40
2018,10,21,04,41,8.40
2018,10,21,04,42,8.40
2018,10,21,04,43,8.40
2018,10,21,04,44,8.40
2018,10,21,04,45,8.40
2018,10,21,04,46,8.40
2018,10,21,04,47,8.30
2018,10,21,04,48,8.30
2018,10,21,04,49,8.30
2018,10,21,04,50,8.30
2018,10,21,04,51,8.30
2018,10,21,04,52,8.30
2018,10,21,04,53,8.30
2018,10,21,04,54,8.20
2018,10,21,04,55,8.20
2018,10,21,04,56,8.20
2018,10,21,04,57,8.20
2018,10,21,04,58,8.20
2018,10,21,04,59,8.20
2018,10,21,05,00,8.20
2018,10,21,05,01,8.20
2018,10,21,05,02,8.20
2018,10,21,05,03,8.20
2018,10,21,05,04,8.10
2018,10,21,05,05,8.10
2018,10,21,05,06,8.10
2018,10,21,05,07,8.00
2018,10,21,05,08,7.90
2018,10,21,05,09,7.90
2018,10,21,05,10,7.90
2018,10,21,05,11,7.90
2018,10,21,05,12,7.90
2018,10,21,05,13,7.80
2018,10,21,05,14,7.80
2018,10,21,05,15,7.70
2018,10,21,05,16,7.70
2018,10,21,05,17,7.70
2018,10,21,05,18,7.60
2018,10,21,05,19,7.60
2018,10,21,05,20,7.60
2018,10,21,05,21,7.50
2018,10,21,05,22,7.40
2018,10,21,05,23,7.30
2018,10,21,05,24,7.30
2018,10,21,05,25,7.20
2018,10,21,05,26,7.10
2018,10,21,05,27,7.00
2018,10,21,05,28,7.00
2018,10,21,05,29,6.90
2018,10,21,05,30,6.80
2018,10,21,05,31,6.70
2018,10,21,05,32,6.70
2018,10,21,05,33,6.60
2018,10,21,05,34,6.50
2018,10,21,05,35,6.50
2018,10,21,05,36,6.40
2018,10,21,05,37,6.40
2018,10,21,05,38,6.30
2018,10,21,05,39,6.30
2018,10,21,05,40,6.20
2018,10,21,05,41,6.20
2018,10,21,05,42,6.20
2018,10,21,05,43,6.10
2018,10,21,05,44,6.10
2018,10,21,05,45,6.10
2018,10,21,05,46,6.00
2018,10,21,05,47,6.00
2018,10,21,05,48,6.10
2018,10,21,05,49,6.00
2018,10,21,05,50,6.00
2018,10,21,05,51,6.00
2018,10,21,05,52,6.00
2018,10,21,05,53,6.00
2018,10,21,05,54,6.00
2018,10,21,05,55,5.90
2018,10,21,05,56,5.90
2018,10,21,05,57,5.90
2018,10,21,05,58,5.90
2018,10,21,05,59,5.90
2018,10,21,06,00,5.90
2018,10,21,06,01,5.80
2018,10,21,06,02,5.80
2018,10,21,06,03,5.80
2018,10,21,06,04,5.80
2018,10,21,06,05,5.80
2018,10,21,06,06,5.70
2018,10,21,06,07,5.70
2018,10,21,06,08,5.70
2018,10,21,06,09,5.70
2018,10,21,06,10,5.70
2018,10,21,06,11,5.70
2018,10,21,06,12,5.60
2018,10,21,06,13,5.60
2018,10,21,06,14,5.60
2018,10,21,06,15,5.60
2018,10,21,06,16,5.60
2018,10,21,06,17,5.60
2018,10,21,06,18,5.60
2018,10,21,06,19,5.60
2018,10,21,06,20,5.60
2018,10,21,06,21,5.70
2018,10,21,06,22,5.60
2018,10,21,06,23,5.60
2018,10,21,06,24,5.60
2018,10,21,06,25,5.60
2018,10,21,06,26,5.50
2018,10,21,06,27,5.50
2018,10,21,06,28,5.40
2018,10,21,06,29,5.40
2018,10,21,06,30,5.40
2018,10,21,06,31,5.30
2018,10,21,06,32,5.30
2018,10,21,06,33,5.30
2018,10,21,06,34,5.30
2018,10,21,06,35,5.30
2018,10,21,06,36,5.30
2018,10,21,06,37,5.30
2018,10,21,06,38,5.30
2018,10,21,06,39,5.30
2018,10,21,06,40,5.30
2018,10,21,06,41,5.20
2018,10,21,06,42,5.20
2018,10,21,06,43,5.20
2018,10,21,06,44,5.20
2018,10,21,06,45,5.10
2018,10,21,06,46,5.10
2018,10,21,06,47,5.10
2018,10,21,06,48,5.10
2018,10,21,06,49,5.00
2018,10,21,06,50,5.00
2018,10,21,06,51,5.00
2018,10,21,06,52,5.00
2018,10,21,06,53,5.00
2018,10,21,06,54,5.00
2018,10,21,06,55,5.10
2018,10,21,06,56,5.10
2018,10,21,06,57,5.10
2018,10,21,06,58,5.20
2018,10,21,06,59,5.20
2018,10,21,07,00,5.20
2018,10,21,07,01,5.20
2018,10,21,07,02,5.30
2018,10,21,07,03,5.30
2018,10,21,07,04,5.30
2018,10,21,07,05,5.40
2018,10,21,07,06,5.50
2018,10,21,07,07,5.50
2018,10,21,07,08,5.60
2018,10,21,07,09,5.60
2018,10,21,07,10,5.70
2018,10,21,07,11,5.70
2018,10,21,07,12,5.80
2018,10,21,07,13,5.80
2018,10,21,07,14,5.90
2018,10,21,07,15,6.00
2018,10,21,07,16,6.00
2018,10,21,07,17,6.00
2018,10,21,07,18,6.10
2018,10,21,07,19,6.10
2018,10,21,07,20,6.10
2018,10,21,07,21,6.10
2018,10,21,07,22,6.10
2018,10,21,07,23,6.10
2018,10,21,07,24,6.10
2018,10,21,07,25,6.20
2018,10,21,07,26,6.20
2018,10,21,07,27,6.20
2018,10,21,07,28,6.20
2018,10,21,07,29,6.20
2018,10,21,07,30,6.20
2018,10,21,07,31,6.20
2018,10,21,07,32,6.20
2018,10,21,07,33,6.10
2018,10,21,07,34,6.10
2018,10,21,07,35,6.10
2018,10,21,07,36,6.10
2018,10,21,07,37,6.10
2018,10,21,07,38,6.10
2018,10,21,07,39,6.10
2018,10,21,07,40,6.10
2018,10,21,07,41,6.10
2018,10,21,07,42,6.10
2018,10,21,07,43,6.10
2018,10,21,07,44,6.10
2018,10,21,07,45,6.10
2018,10,21,07,46,6.10
2018,10,21,07,47,6.00
2018,10,21,07,48,6.00
2018,10,21,07,49,6.00
2018,10,21,07,50,6.00
2018,10,21,07,51,6.00
2018,10,21,07,52,5.90
2018,10,21,07,53,5.90
2018,10,21,07,54,5.90
2018,10,21,07,55,5.90
2018,10,21,07,56,5.90
2018,10,21,07,57,5.90
2018,10,21,07,58,5.90
2018,10,21,07,59,5.90
2018,10,21,08,00,5.90
2018,10,21,08,01,5.90
2018,10,21,08,02,5.90
2018,10,21,08,03,6.00
2018,10,21,08,04,6.00
2018,10,21,08,05,6.00
2018,10,21,08,06,6.00
2018,10,21,08,07,6.00
2018,10,21,08,08,6.00
2018,10,21,08,09,6.00
2018,10,21,08,10,5.90
2018,10,21,08,11,5.90
2018,10,21,08,12,5.90
2018,10,21,08,13,5.90
2018,10,21,08,14,5.90
2018,10,21,08,15,5.80
2018,10,21,08,16,5.70
2018,10,21,08,17,5.70
2018,10,21,08,18,5.60
2018,10,21,08,19,5.50
2018,10,21,08,20,5.40
2018,10,21,08,21,5.40
2018,10,21,08,22,5.40
2018,10,21,08,23,5.30
2018,10,21,08,24,5.30
2018,10,21,08,25,5.30
2018,10,21,08,26,5.30
2018,10,21,08,27,5.30
2018,10,21,08,28,5.40
2018,10,21,08,29,5.40
2018,10,21,08,30,5.40
2018,10,21,08,31,5.50
2018,10,21,08,32,5.60
2018,10,21,08,33,5.60
2018,10,21,08,34,5.70
2018,10,21,08,35,5.70
2018,10,21,08,36,5.70
2018,10,21,08,37,5.80
2018,10,21,08,38,5.80
2018,10,21,08,39,5.80
2018,10,21,08,40,5.90
2018,10,21,08,41,5.90
2018,10,21,08,42,5.90
2018,10,21,08,43,5.90
2018,10,21,08,44,6.00
2018,10,21,08,45,6.00
2018,10,21,08,46,6.00
2018,10,21,08,47,6.10
2018,10,21,08,48,6.10
2018,10,21,08,49,6.10
2018,10,21,08,50,6.20
2018,10,21,08,51,6.20
2018,10,21,08,52,6.20
2018,10,21,08,53,6.30
2018,10,21,08,54,6.30
2018,10,21,08,55,6.40
2018,10,21,08,56,6.40
2018,10,21,08,57,6.40
2018,10,21,08,58,6.40
2018,10,21,08,59,6.50
2018,10,21,09,00,6.50
2018,10,21,09,01,6.50
2018,10,21,09,02,6.50
2018,10,21,09,03,6.60
2018,10,21,09,04,6.60
2018,10,21,09,05,6.60
2018,10,21,09,06,6.70
2018,10,21,09,07,6.70
2018,10,21,09,08,6.80
2018,10,21,09,09,6.80
2018,10,21,09,10,6.80
2018,10,21,09,11,6.90
2018,10,21,09,12,6.90
2018,10,21,09,13,7.00
2018,10,21,09,14,7.10
2018,10,21,09,15,7.10
2018,10,21,09,16,7.20
2018,10,21,09,17,7.20
2018,10,21,09,18,7.30
2018,10,21,09,19,7.30
2018,10,21,09,20,7.30
2018,10,21,09,21,7.40
2018,10,21,09,22,7.40
2018,10,21,09,23,7.40
2018,10,21,09,24,7.50
2018,10,21,09,25,7.50
2018,10,21,09,26,7.60
2018,10,21,09,27,7.60
2018,10,21,09,28,7.70
2018,10,21,09,29,7.80
2018,10,21,09,30,7.80
2018,10,21,09,31,7.90
2018,10,21,09,32,7.90
2018,10,21,09,33,8.00
2018,10,21,09,34,8.10
2018,10,21,09,35,8.10
2018,10,21,09,36,8.20
2018,10,21,09,37,8.20
2018,10,21,09,38,8.30
2018,10,21,09,39,8.40
2018,10,21,09,40,8.40
2018,10,21,09,41,8.40
2018,10,21,09,42,8.50
2018,10,21,09,43,8.50
2018,10,21,09,44,8.60
2018,10,21,09,45,8.70
2018,10,21,09,46,8.70
2018,10,21,09,47,8.80
2018,10,21,09,48,8.80
2018,10,21,09,49,8.80
2018,10,21,09,50,8.90
2018,10,21,09,51,9.00
2018,10,21,09,52,9.00
2018,10,21,09,53,9.10
2018,10,21,09,54,9.20
2018,10,21,09,55,9.20
2018,10,21,09,56,9.30
2018,10,21,09,57,9.30
2018,10,21,09,58,9.40
2018,10,21,09,59,9.40
2018,10,21,10,00,9.50
2018,10,21,10,01,9.50
2018,10,21,10,02,9.60
2018,10,21,10,03,9.60
2018,10,21,10,04,9.60
2018,10,21,10,05,9.70
2018,10,21,10,06,9.70
2018,10,21,10,07,9.80
2018,10,21,10,08,9.80
2018,10,21,10,09,9.80
2018,10,21,10,10,9.80
2018,10,21,10,11,9.80
2018,10,21,10,12,9.80
2018,10,21,10,13,9.80
2018,10,21,10,14,9.80
2018,10,21,10,15,9.80
2018,10,21,10,16,9.80
2018,10,21,10,17,9.80
2018,10,21,10,18,9.80
2018,10,21,10,19,9.80
2018,10,21,10,20,9.80
2018,10,21,10,21,9.80
2018,10,21,10,22,9.80
2018,10,21,10,23,9.90
2018,10,21,10,24,9.90
2018,10,21,10,25,10.00
2018,10,21,10,26,10.00
2018,10,21,10,27,10.00
2018,10,21,10,28,10.10
2018,10,21,10,29,10.10
2018,10,21,10,30,10.20
2018,10,21,10,31,10.20
2018,10,21,10,32,10.20
2018,10,21,10,33,10.30
2018,10,21,10,34,10.30
2018,10,21,10,35,10.30
2018,10,21,10,36,10.30
2018,10,21,10,37,10.30
2018,10,21,10,38,10.40
2018,10,21,10,39,10.40
2018,10,21,10,40,10.40
2018,10,21,10,41,10.40
2018,10,21,10,42,10.40
2018,10,21,10,43,10.40
2018,10,21,10,44,10.30
2018,10,21,10,45,10.30
2018,10,21,10,46,10.30
2018,10,21,10,47,10.30
2018,10,21,10,48,10.20
2018,10,21,10,49,10.20
2018,10,21,10,50,10.20
2018,10,21,10,51,10.20
2018,10,21,10,52,10.30
2018,10,21,10,53,10.30
2018,10,21,10,54,10.30
2018,10,21,10,55,10.30
2018,10,21,10,56,10.30
2018,10,21,10,57,10.30
2018,10,21,10,58,10.30
2018,10,21,10,59,10.30
2018,10,21,11,00,10.30
2018,10,21,11,01,10.40
2018,10,21,11,02,10.40
2018,10,21,11,03,10.40
2018,10,21,11,04,10.40
2018,10,21,11,05,10.50
2018,10,21,11,06,10.50
2018,10,21,11,07,10.60
2018,10,21,11,08,10.60
2018,10,21,11,09,10.60
2018,10,21,11,10,10.70
2018,10,21,11,11,10.70
2018,10,21,11,12,10.70
2018,10,21,11,13,10.70
2018,10,21,11,14,10.80
2018,10,21,11,15,10.80
2018,10,21,11,16,10.80
2018,10,21,11,17,10.80
2018,10,21,11,18,10.80
2018,10,21,11,19,10.80
2018,10,21,11,20,10.80
2018,10,21,11,21,10.70
2018,10,21,11,22,10.70
2018,10,21,11,23,10.70
2018,10,21,11,24,10.70
2018,10,21,11,25,10.70
2018,10,21,11,26,10.70
2018,10,21,11,27,10.70
2018,10,21,11,28,10.80
2018,10,21,11,29,10.80
2018,10,21,11,30,10.80
2018,10,21,11,31,10.80
2018,10,21,11,32,10.90
2018,10,21,11,33,10.90
2018,10,21,11,34,10.90
2018,10,21,11,35,11.00
2018,10,21,11,36,11.00
2018,10,21,11,37,11.10
2018,10,21,11,38,11.10
2018,10,21,11,39,11.20
2018,10,21,11,40,11.20
2018,10,21,11,41,11.20
2018,10,21,11,42,11.30
2018,10,21,11,43,11.30
2018,10,21,11,44,11.40
2018,10,21,11,45,11.40
2018,10,21,11,46,11.40
2018,10,21,11,47,11.50
2018,10,21,11,48,11.50
2018,10,21,11,49,11.50
2018,10,21,11,50,11.60
2018,10,21,11,51,11.60
2018,10,21,11,52,11.60
2018,10,21,11,53,11.70
2018,10,21,11,54,11.70
2018,10,21,11,55,11.70
2018,10,21,11,56,11.80
2018,10,21,11,57,11.80
2018,10,21,11,58,11.90
2018,10,21,11,59,11.90
2018,10,21,12,00,12.00
2018,10,21,12,01,12.00
2018,10,21,12,02,12.10
2018,10,21,12,03,12.10
2018,10,21,12,04,12.20
2018,10,21,12,05,12.20
2018,10,21,12,06,12.20
2018,10,21,12,07,12.20
2018,10,21,12,08,12.30
2018,10,21,12,09,12.30
2018,10,21,12,10,12.40
2018,10,21,12,11,12.40
2018,10,21,12,12,12.40
2018,10,21,12,13,12.40
2018,10,21,12,14,12.50
2018,10,21,12,15,12.50
2018,10,21,12,16,12.50
2018,10,21,12,17,12.60
2018,10,21,12,18,12.60
2018,10,21,12,19,12.70
2018,10,21,12,20,12.80
2018,10,21,12,21,12.80
2018,10,21,12,22,12.80
2018,10,21,12,23,12.90
2018,10,21,12,24,12.90
2018,10,21,12,25,12.90
2018,10,21,12,26,13.00
2018,10,21,12,27,13.00
2018,10,21,12,28,13.10
2018,10,21,12,29,13.10
2018,10,21,12,30,13.20
2018,10,21,12,31,13.30
2018,10,21,12,32,13.30
2018,10,21,12,33,13.30
2018,10,21,12,34,13.40
2018,10,21,12,35,13.40
2018,10,21,12,36,13.40
2018,10,21,12,37,13.40
2018,10,21,12,38,13.50
2018,10,21,12,39,13.50
2018,10,21,12,40,13.60
2018,10,21,12,41,13.60
2018,10,21,12,42,13.70
2018,10,21,12,43,13.80
2018,10,21,12,44,13.80
2018,10,21,12,45,13.80
2018,10,21,12,46,13.90
2018,10,21,12,47,13.90
2018,10,21,12,48,13.90
2018,10,21,12,49,13.90
2018,10,21,12,50,13.90
2018,10,21,12,51,13.90
2018,10,21,12,52,13.90
2018,10,21,12,53,13.90
2018,10,21,12,54,13.90
2018,10,21,12,55,13.90
2018,10,21,12,56,13.90
2018,10,21,12,57,14.00
2018,10,21,12,58,14.00
2018,10,21,12,59,14.10
2018,10,21,13,00,14.10
2018,10,21,13,01,14.10
2018,10,21,13,02,14.10
2018,10,21,13,03,14.00
2018,10,21,13,04,14.00
2018,10,21,13,05,13.90
2018,10,21,13,06,13.90
2018,10,21,13,07,13.90
2018,10,21,13,08,13.90
2018,10,21,13,09,13.90
2018,10,21,13,10,13.80
2018,10,21,13,11,13.80
2018,10,21,13,12,13.80
2018,10,21,13,13,13.80
2018,10,21,13,14,13.80
2018,10,21,13,15,13.80
2018,10,21,13,16,13.80
2018,10,21,13,17,13.80
2018,10,21,13,18,13.70
2018,10,21,13,19,13.80
2018,10,21,13,20,13.80
2018,10,21,13,21,13.80
2018,10,21,13,22,13.80
2018,10,21,13,23,13.80
2018,10,21,13,24,13.80
2018,10,21,13,25,13.80
2018,10,21,13,26,13.80
2018,10,21,13,27,13.90
2018,10,21,13,28,13.90
2018,10,21,13,29,13.90
2018,10,21,13,30,13.90
2018,10,21,13,31,13.90
2018,10,21,13,32,13.90
2018,10,21,13,33,13.90
2018,10,21,13,34,13.90
2018,10,21,13,35,13.90
2018,10,21,13,36,13.90
2018,10,21,13,37,13.90
2018,10,21,13,38,13.80
2018,10,21,13,39,13.80
2018,10,21,13,40,13.80
2018,10,21,13,41,13.80
2018,10,21,13,42,13.80
2018,10,21,13,43,13.80
2018,10,21,13,44,13.70
2018,10,21,13,45,13.70
2018,10,21,13,46,13.70
2018,10,21,13,47,13.70
2018,10,21,13,48,13.60
2018,10,21,13,49,13.60
2018,10,21,13,50,13.60
2018,10,21,13,51,13.50
2018,10,21,13,52,13.40
2018,10,21,13,53,13.40
2018,10,21,13,54,13.40
2018,10,21,13,55,13.30
2018,10,21,13,56,13.30
2018,10,21,13,57,13.30
2018,10,21,13,58,13.30
2018,10,21,13,59,13.30
2018,10,21,14,00,13.30
2018,10,21,14,01,13.30
2018,10,21,14,02,13.30
2018,10,21,14,03,13.30
2018,10,21,14,04,13.30
2018,10,21,14,05,13.30
2018,10,21,14,06,13.30
2018,10,21,14,07,13.30
2018,10,21,14,08,13.40
2018,10,21,14,09,13.40
2018,10,21,14,10,13.40
2018,10,21,14,11,13.40
2018,10,21,14,12,13.50
2018,10,21,14,13,13.50
2018,10,21,14,14,13.50
2018,10,21,14,15,13.60
2018,10,21,14,16,13.60
2018,10,21,14,17,13.60
2018,10,21,14,18,13.60
2018,10,21,14,19,13.70
2018,10,21,14,20,13.70
2018,10,21,14,21,13.70
2018,10,21,14,22,13.70
2018,10,21,14,23,13.80
2018,10,21,14,24,13.80
2018,10,21,14,25,13.90
2018,10,21,14,26,13.90
2018,10,21,14,27,13.90
2018,10,21,14,28,13.90
2018,10,21,14,29,13.90
2018,10,21,14,30,14.00
2018,10,21,14,31,14.00
2018,10,21,14,32,14.00
2018,10,21,14,33,14.00
2018,10,21,14,34,14.00
2018,10,21,14,35,14.10
2018,10,21,14,36,14.10
2018,10,21,14,37,14.10
2018,10,21,14,38,14.00
2018,10,21,14,39,14.00
2018,10,21,14,40,14.00
2018,10,21,14,41,14.00
2018,10,21,14,42,14.00
2018,10,21,14,43,14.00
2018,10,21,14,44,14.00
2018,10,21,14,45,14.10
2018,10,21,14,46,14.10
2018,10,21,14,47,14.10
2018,10,21,14,48,14.10
2018,10,21,14,49,14.20
2018,10,21,14,50,14.20
2018,10,21,14,51,14.20
2018,10,21,14,52,14.20
2018,10,21,14,53,14.20
2018,10,21,14,54,14.20
2018,10,21,14,55,14.20
2018,10,21,14,56,14.20
2018,10,21,14,57,14.20
2018,10,21,14,58,14.10
2018,10,21,14,59,14.10
2018,10,21,15,00,14.10
2018,10,21,15,01,14.10
2018,10,21,15,02,14.10
2018,10,21,15,03,14.00
2018,10,21,15,04,14.00
2018,10,21,15,05,13.90
2018,10,21,15,06,13.90
2018,10,21,15,07,13.90
2018,10,21,15,08,13.80
2018,10,21,15,09,13.80
2018,10,21,15,10,13.70
2018,10,21,15,11,13.70
2018,10,21,15,12,13.60
2018,10,21,15,13,13.50
2018,10,21,15,14,13.50
2018,10,21,15,15,13.40
2018,10,21,15,16,13.30
2018,10,21,15,17,13.30
2018,10,21,15,18,13.30
2018,10,21,15,19,13.20
2018,10,21,15,20,13.20
2018,10,21,15,21,13.10
2018,10,21,15,22,13.10
2018,10,21,15,23,13.10
2018,10,21,15,24,13.10
2018,10,21,15,25,13.10
2018,10,21,15,26,13.10
2018,10,21,15,27,13.20
2018,10,21,15,28,13.20
2018,10,21,15,29,13.20
2018,10,21,15,30,13.30
2018,10,21,15,31,13.30
2018,10,21,15,32,13.40
2018,10,21,15,33,13.50
2018,10,21,15,34,13.50
2018,10,21,15,35,13.60
2018,10,21,15,36,13.60
2018,10,21,15,37,13.70
2018,10,21,15,38,13.70
2018,10,21,15,39,13.80
2018,10,21,15,40,13.80
2018,10,21,15,41,13.90
2018,10,21,15,42,13.90
2018,10,21,15,43,14.00
2018,10,21,15,44,14.10
2018,10,21,15,45,14.10
2018,10,21,15,46,14.20
2018,10,21,15,47,14.30
2018,10,21,15,48,14.30
2018,10,21,15,49,14.40
2018,10,21,15,50,14.40
2018,10,21,15,51,14.40
2018,10,21,15,52,14.50
2018,10,21,15,53,14.50
2018,10,21,15,54,14.50
2018,10,21,15,55,14.60
2018,10,21,15,56,14.60
2018,10,21,15,57,14.50
2018,10,21,15,58,14.50
2018,10,21,15,59,14.50
2018,10,21,16,00,14.50
2018,10,21,16,01,14.50
2018,10,21,16,02,14.60
2018,10,21,16,03,14.60
2018,10,21,16,04,14.60
2018,10,21,16,05,14.60
2018,10,21,16,06,14.70
2018,10,21,16,07,14.70
2018,10,21,16,08,14.70
2018,10,21,16,09,14.70
2018,10,21,16,10,14.70
2018,10,21,16,11,14.70
2018,10,21,16,12,14.70
2018,10,21,16,13,14.70
2018,10,21,16,14,14.70
2018,10,21,16,15,14.70
2018,10,21,16,16,14.60
2018,10,21,16,17,14.50
2018,10,21,16,18,14.50
2018,10,21,16,19,14.40
2018,10,21,16,20,14.30
2018,10,21,16,21,14.30
2018,10,21,16,22,14.20
2018,10,21,16,23,14.20
2018,10,21,16,24,14.10
2018,10,21,16,25,14.10
2018,10,21,16,26,14.00
2018,10,21,16,27,14.00
2018,10,21,16,28,13.90
2018,10,21,16,29,13.90
2018,10,21,16,30,13.90
2018,10,21,16,31,13.80
2018,10,21,16,32,13.80
2018,10,21,16,33,13.80
2018,10,21,16,34,13.80
2018,10,21,16,35,13.70
2018,10,21,16,36,13.70
2018,10,21,16,37,13.70
2018,10,21,16,38,13.70
2018,10,21,16,39,13.60
2018,10,21,16,40,13.60
2018,10,21,16,41,13.50
2018,10,21,16,42,13.50
2018,10,21,16,43,13.40
2018,10,21,16,44,13.40
2018,10,21,16,45,13.40
2018,10,21,16,46,13.30
2018,10,21,16,47,13.30
2018,10,21,16,48,13.30
2018,10,21,16,49,13.30
2018,10,21,16,50,13.30
2018,10,21,16,51,13.20
2018,10,21,16,52,13.20
2018,10,21,16,53,13.20
2018,10,21,16,54,13.20
2018,10,21,16,55,13.10
2018,10,21,16,56,13.10
2018,10,21,16,57,13.10
2018,10,21,16,58,13.10
2018,10,21,16,59,13.10
2018,10,21,17,00,13.10
2018,10,21,17,01,13.00
2018,10,21,17,02,13.00
2018,10,21,17,03,13.00
2018,10,21,17,04,13.00
2018,10,21,17,05,13.00
2018,10,21,17,06,13.00
2018,10,21,17,07,13.00
2018,10,21,17,08,13.00
2018,10,21,17,09,12.90
2018,10,21,17,10,12.90
2018,10,21,17,11,12.90
2018,10,21,17,12,12.90
2018,10,21,17,13,12.90
2018,10,21,17,14,12.90
2018,10,21,17,15,12.90
2018,10,21,17,16,12.80
2018,10,21,17,17,12.80
2018,10,21,17,18,12.80
2018,10,21,17,19,12.80
2018,10,21,17,20,12.80
2018,10,21,17,21,12.80
2018,10,21,17,22,12.80
2018,10,21,17,23,12.70
2018,10,21,17,24,12.70
2018,10,21,17,25,12.70
2018,10,21,17,26,12.70
2018,10,21,17,27,12.60
2018,10,21,17,28,12.60
2018,10,21,17,29,12.60
2018,10,21,17,30,12.60
2018,10,21,17,31,12.50
2018,10,21,17,32,12.50
2018,10,21,17,33,12.50
2018,10,21,17,34,12.40
2018,10,21,17,35,12.40
2018,10,21,17,36,12.40
2018,10,21,17,37,12.40
2018,10,21,17,38,12.40
2018,10,21,17,39,12.40
2018,10,21,17,40,12.40
2018,10,21,17,41,12.30
2018,10,21,17,42,12.30
2018,10,21,17,43,12.30
2018,10,21,17,44,12.30
2018,10,21,17,45,12.30
2018,10,21,17,46,12.30